Regional Weather Roundup
Issued by NWS Upton, NY

Current Version | Previous Version | Graphics & Text | Print | Product List | Glossary Off
Versions: 1 2 3 4 5 6 7 8 9 10 11 12 13 14 15 16 17 18 19 20 21 22 23 24 25 26 27 28 29 30 31 32 33 34 35 36 37 38 39 40 41 42 43 44 45 46 47 48 49 50

466
ASUS41 KOKX 192108
RWROKX

REGIONAL WEATHER ROUNDUP
NATIONAL WEATHER SERVICE NEW YORK NY
400 PM EST SUN FEB 19 2017

NOTE: "FAIR" INDICATES FEW OR NO CLOUDS BELOW 12,000 FEET WITH NO
SIGNIFICANT WEATHER AND/OR OBSTRUCTIONS TO VISIBILITY.

NYZ071-072-176-178-NJZ106-104-192200-
NEW YORK CITY METRO AREA

CITY           SKY/WX    TMP DP  RH WIND       PRES   REMARKS
Central Park   SUNNY     64  31  28 NW8       29.84R
Wall St Helipt NOT AVBL
LaGuardia APRT MOSUNNY   66  30  26 W15G22    29.81R
Kennedy INTL   MOSUNNY   67  30  25 NW17G25   29.82R
Breezy Point     N/A     63 N/A N/A NW12G20     N/A
Newark/Liberty MOSUNNY   66  30  26 NW14G21   29.82R
Teterboro      SUNNY     65  35  33 W12G20    29.81R
$$

NYZ177-179-078>081-192200-
LONG ISLAND NEW YORK

CITY           SKY/WX    TMP DP  RH WIND       PRES   REMARKS
Jones Beach      N/A     55 N/A N/A W8          N/A
Matinecock PT  NOT AVBL
Farmingdale    SUNNY     64  32  30 W16G22    29.81R
MacArthur/ISP  MOSUNNY   63  32  31 NW14      29.80R
Shirley        SUNNY     62  33  33 W9        29.81R
Westhampton    SUNNY     62  31  31 W15       29.81R
Southampton    NOT AVBL
Bridgehampton  NOT AVBL
East Hampton     N/A     60  33  36 W9G18     29.78R
Montauk          N/A     58  35  42 W9        29.79R
$$

NYZ052-065-067-192200-
HUDSON VALLEY

CITY           SKY/WX    TMP DP  RH WIND       PRES   REMARKS
White Plains   SUNNY     61  31  32 W12       29.80R
Newburgh       SUNNY     61  32  33 W17G29    29.82R
Montgomery     SUNNY     60  27  28 NW15G25   29.81R
Poughkeepsie   SUNNY     59  27  29 W14       29.79R
Albany         MOSUNNY   52  32  46 W14G28    29.84R
$$

NJZ001-105-106-008-010-013-015-019>022-104-192200-
NEW JERSEY

CITY           SKY/WX    TMP DP  RH WIND       PRES   REMARKS
Newark/Liberty MOSUNNY   66  30  26 NW14G21   29.82R
Teterboro      SUNNY     65  35  33 W12G20    29.81R
Caldwell       SUNNY     65  29  25 NW16G23   29.83R
Somerville     SUNNY     66  33  29 NW12G23   29.82R
Linden         NOT AVBL
Sussex         SUNNY     61  31  32 VRB6G21   29.84R
Andover          N/A     62  31  31 VRB6      29.84R
Trenton        SUNNY     68  33  27 NW13G18   29.83S
Millville      SUNNY     70  38  31 NW14      29.86R
Atlantic City  SUNNY     70  38  31 W9        29.85R
Wrightstown    SUNNY     68  35  29 NW10      29.81R
Toms River     SUNNY     68  34  28 NW13G20   29.84R
Belmar         SUNNY     68  34  28 W10G21    29.83R
$$

PAZ047>061-062-071-192200-
EASTERN PENNSYLVANIA

CITY           SKY/WX    TMP DP  RH WIND       PRES   REMARKS
Philadelphia   MOSUNNY   70  34  26 W18G24    29.86R
Allentown      SUNNY     66  34  30 W9        29.85R
Scranton       SUNNY     64  33  31 NW10      29.84R
$$

CTZ002-004>006-009-010-012-RIZ004-006-007-MAZ004-011-015-192200-
SOUTHERN NEW ENGLAND
 IN CT

CITY           SKY/WX    TMP DP  RH WIND       PRES   REMARKS
Bradley INTL   MOSUNNY   56  27  32 NW20G29   29.78R
Hartford       SUNNY     61  30  31 W9        29.77R
Danbury        SUNNY     61  29  29 W7        29.80R
Wtrbury/Oxford SUNNY     59  30  33 W8        29.80R
Bridgeport     SUNNY     63  34  33 W10       29.79R
Meriden        SUNNY     61  31  32 W8        29.78R
New Haven      SUNNY     58  34  40 W3        29.78R
Chester          N/A     61  30  31 W9G16     29.78R
Groton         SUNNY     58  36  43 W10       29.76R
Wilimantic     SUNNY     61  28  28 W7G20     29.76R

 IN RI

CITY           SKY/WX    TMP DP  RH WIND       PRES   REMARKS
Providence     NOT AVBL
Block Island   SUNNY     55  38  52 W16       29.77R
Westerly       SUNNY     55  35  47 SW7       29.77R
 IN MA

CITY           SKY/WX    TMP DP  RH WIND       PRES   REMARKS
Boston         MOSUNNY   59  31  34 W14       29.71R
Worcester      SUNNY     54  27  35 W12G23    29.73R
Westfield      SUNNY     55  29  36 NW16G26   29.77R
Provincetown   CLOUDY    54  35  48 W10       29.72R
Nantucket      SUNNY     53  36  52 W20       29.74R
$$

ANZ330-335-338-340-345-350-353-355-192200-
COASTAL MARINE OBSERVATIONS


STATION/POSITION TIME  SKY/WX   TEMP    WIND        PRES    VSBY  WAVE
                                AIR SEA DIR/SP/G                  HT/PER
                 (UTC)          (F)     (DEG/KT/KT) (MB)    (MI)  (FT/S)
NY HARB ENTRANCE 1950            54 43  290/  8/ 10 1008.8          2/ 6
20 S FIRE ISLAND 2050            47 40  230/ 10/ 10 1009.6          3/ 7
GREAT SOUTH BAY  NOT AVBL
23 SSW MONTAUK P 1950            48 44              1008.6          3/ 8
15 E BARNEGAT LI 2030               43                N/A           3/ 7
HUDSON CANYON    1950               51              1009.5          4/ 8
KINGS POINT      2042            57 38              1009.3
EXECUTION ROCKS  NOT AVBL
CENTRAL LI SOUND 2030            45     260/ 10/ 10   N/A           0
EASTERN LI SOUND NOT AVBL
ROBBINS REEF     2042            64     300/ 23/ 26 1009.6
$$


>>>>>>>>>>>>>>>>>>>>>>>>>>>> KEY <<<<<<<<<<<<<<<<<<<<<<<<<<<
>                                                          <
>     SKY/WX - Sky Condition/Present Weather               <
>     TMP    - Temperature in Fahrenheit                   <
>     DP     - Dew Point in Fahrenheit                     <
>     RH     - Relative Humidity in Percent                <
>     WIND   - Direction (from) and Speed in MPH           <
>     PRES   - Mean Sea Level Pressure (inches of Hg)      <
>     WCI    - Wind Chill Index                            <
>     VSB    - VISIBILITY IN MILES                         <
>     HX     - HEAT INDEX                                  <
>     TC     - TEMPERATURE IN CELSIUS                      <
>     VRB    - VARIABLE WIND DIRECTION                     <
>                                                          <
>>>>>>>>>>>>>>>>>>>>>>>>>>>> KEY <<<<<<<<<<<<<<<<<<<<<<<<<<<




USA.gov is the U.S. government's official web portal to all federal, state and local government web resources and services.